Location: Unspecified
(0.0000°N, 0.0000°E)
Time: 23:04:58
(UTC+00:00)

Aureole 2 - Pass Details

Date: 22 February 2026
Orbit: 305 x 463 km, 73.9° (Epoch: 29 March)

Event Time Altitude Azimuth Distance (km) Brightness Sun altitude
Rises 18:33:35 0° 185° (S) 2,159 8.1 -5.0°
Reaches altitude 10° 18:35:39 10° 178° (S) 1,283 6.8 -5.5°
Maximum altitude 18:38:20 46° 103° (ESE) 451 4.0 -6.1°
Drops below altitude 10° 18:40:52 10° 28° (NNE) 1,213 6.2 -6.8°
Sets 18:42:46 0° 21° (NNE) 2,021 7.4 -7.2°
